Location: Wien
(48.2082°N, 16.3738°E)
Time: 20:03:00
(UTC+02:00)

JY1SAT - Pass Details

Date: 25 May 2025
Orbit: 497 x 509 km, 97.5° (Epoch: 12 June)

Event Time Altitude Azimuth Distance (km) Brightness Sun altitude
Exits shadow 22:25:44 - 200° (SSW) 1,879 ? -13.4°
Reaches altitude 10° 22:26:09 10° 203° (SSW) 1,728 ? -13.4°
Maximum altitude 22:29:25 29° 264° (W) 970 ? -13.7°
Drops below altitude 10° 22:32:42 10° 326° (NW) 1,737 ? -14.0°
Sets 22:35:01 0° 338° (NNW) 2,626 ? -14.2°
